Showing default

LARETS, 27944

Orbit data source: Space-Track

LARETS, 27944 is a payload satellite owned by NII KP (CIS) in SSO that was launched on Sat, 27 Sep 2003 UTC via a KOSMOS 11K65M launch vehicle from the Plesetsk Missile And Space Complex (PKMTR). Payloads include a variety of satellites, spacecraft, and rockets equipped with specific instruments for various scientific and technological missions. These include communications satellites like Starlink; space stations such as the ISS; scientific satellites like the Hubble; Earth observation satellites from companies like Planet Labs, Umbra, and HawkEye 360; GPS; miniature CubeSats for education and research; and military/defense satellites.

Loading next visibility...
LARETS details
Identifier
27944, 2003-042F
Orbit
SSO
Last TLE update6 hours ago
Origin
Flag of CISNII KP (CIS)
ManufacturerNII KP
MissionOperational Defense Calibration
Bus & MotorUnknown
Mass~10 kg wet, ~10 kg dry
Launch date (UTC)
2003-09-27 (21 years ago)
Launch vehicle
KOSMOS 11K65M
Launch site
Plesetsk Missile And Space Complex (PKMTR)
Object type
Payload
Rocket body
Debris
Shape & HBRSphere, 0.2 m
Radar Cross Section0.031 m², Medium (>0.1 m² and < 1m²)

Expand to show TLE details & history

TLE from 6 hours ago
0 LARETS
1 27944U 03042F   25025.57151638  .00000308  00000-0  68683-4 0  9991
2 27944  98.3432 174.1661 0012323 175.2707 184.8613 14.63691387139106
Epoch: 2025-01-25T13:42Z
Definitive object data (Epoch: 2025-01-25T13:42:59.015Z)
Latitude-0.00004°
Longitude-156.69821°
Altitude692.936 km
Speed7.505 km/s
True Right ascension11h 36m 39s
True Declination0° 00' 00"
Sunlit
Object was in full shadow at TLE epoch
Visualization TLE readout
Latitude-14.99197°
Longitude21.30808°
Altitude679.249 km
Speed7.521 km/s
Apparent Right ascension02h 31m 23s
Apparent Declination-53° 45' 52"
Sunlit
Object is in daylight
Visualization observer readout
Local Sidereal Time20:52:30
Azimuth137.994° SSE
Elevation-28.413°
Doppler factor1
Orbital elements
Apogee altitude687.059 km
Perigee altitude669.667 km
Semi-major axis7,056.5 km
Eccentricity0.0012323
Inclination98.3432°
RAAN174.1661°
Arg. of periapsis175.2707°
True anomaly184.84935°
Mean anomaly184.8613°
Eccentric anomaly184.85532°
Mean motion3.6615 °/min
BSTAR0.000068683
Orbital period98.32 mins
Loading maneuver chart data...
Loading historical data...
Loading historical data...
Loading historical data...
Loading historical data...
Loading historical data...
Loading historical data...
Loading historical data...

LARETS Visibility forecast

Observer location: undefined°, undefined

Span
Click to sort rows by Start time (UTC) header in descending order
Start Az.
Max El. time (UTC)
Max El. Az.
Max El.
End time (UTC)
End Az.
8 mins2025-01-25 22:29:33.660Z19.619° NNE2025-01-25 22:33:33.660Z111.346° ESE42.877°2025-01-25 22:37:33.660Z184.726° SSW
7 mins2025-01-26 09:32:33.660Z150.944° SSE2025-01-26 09:35:33.660Z67.629° E42.367°2025-01-26 09:39:33.660Z353.893° N
|